• In Uzbekistan
  • List of Countries
  • For 7 days
  • Water Temperature
  • Weather Map
  • Weather Widgets
  • user-avatar
    Login

    Hourly Weather Lanzhou

    Today, 22 February, Saturday

    Time Temperature Precipitation Wind Pressure Humidity
    00:00 0°C° 0 mm 1 mps 624 mmHg 39%
    01:00 -1°C° 0 mm 0 mps 623 mmHg 40%
    02:00 -1°C° 0 mm 0 mps 623 mmHg 41%
    03:00 -2°C° 0 mm 0 mps 622 mmHg 42%
    04:00 -2°C° 0 mm 0 mps 622 mmHg 42%
    05:00 -2°C° 0 mm 0 mps 622 mmHg 43%
    06:00 -2°C° 0 mm 0 mps 622 mmHg 43%
    07:00 -2°C° 0 mm 0 mps 622 mmHg 42%
    08:00 0°C° 0 mm 0 mps 623 mmHg 38%
    09:00 +2°C° 0 mm 1 mps 623 mmHg 34%
    10:00 +4°C° 0 mm 1 mps 623 mmHg 30%
    11:00 +6°C° 0 mm 1 mps 623 mmHg 27%
    12:00 +7°C° 0 mm 1 mps 622 mmHg 25%
    13:00 +8°C° 0 mm 1 mps 622 mmHg 23%
    14:00 +9°C° 0 mm 1 mps 622 mmHg 22%
    15:00 +10°C° 0 mm 1 mps 622 mmHg 22%
    16:00 +10°C° 0 mm 1 mps 621 mmHg 21%
    17:00 +9°C° 0 mm 1 mps 621 mmHg 25%
    18:00 +8°C° 0 mm 1 mps 621 mmHg 29%
    19:00 +6°C° 0 mm 1 mps 621 mmHg 33%
    20:00 +6°C° 0 mm 1 mps 621 mmHg 34%
    21:00 +5°C° 0 mm 1 mps 621 mmHg 35%
    22:00 +5°C° 0 mm 1 mps 621 mmHg 36%
    23:00 +4°C° 0 mm 1 mps 620 mmHg 38%

    Tomorrow, 23 February, Sunday

    Time Temperature Precipitation Wind Pressure Humidity
    00:00 +4°C° 0 mm 1 mps 620 mmHg 39%
    01:00 +3°C° 0 mm 1 mps 620 mmHg 41%
    02:00 +3°C° 0 mm 1 mps 619 mmHg 42%
    03:00 +3°C° 0 mm 1 mps 619 mmHg 43%
    04:00 +2°C° 0 mm 1 mps 618 mmHg 45%
    05:00 +2°C° 0 mm 1 mps 618 mmHg 47%
    06:00 +2°C° 0 mm 1 mps 618 mmHg 49%
    07:00 +1°C° 0 mm 0 mps 618 mmHg 51%
    08:00 +3°C° 0 mm 0 mps 619 mmHg 45%
    09:00 +5°C° 0 mm 0 mps 619 mmHg 39%
    10:00 +8°C° 0 mm 0 mps 620 mmHg 33%
    11:00 +9°C° 0 mm 0 mps 619 mmHg 31%
    12:00 +11°C° 0 mm 1 mps 619 mmHg 28%
    13:00 +12°C° 0 mm 1 mps 618 mmHg 26%
    14:00 +12°C° 0 mm 1 mps 617 mmHg 27%
    15:00 +13°C° 0 mm 1 mps 617 mmHg 29%
    16:00 +13°C° 0 mm 2 mps 616 mmHg 30%
    17:00 +12°C° 0 mm 1 mps 616 mmHg 36%
    18:00 +10°C° 0 mm 1 mps 616 mmHg 42%
    19:00 +9°C° 0 mm 1 mps 616 mmHg 48%
    20:00 +9°C° 0 mm 1 mps 616 mmHg 50%
    21:00 +9°C° 0 mm 1 mps 616 mmHg 51%
    22:00 +8°C° 0 mm 1 mps 616 mmHg 52%
    23:00 +6°C° 0 mm 2 mps 616 mmHg 50%

    Day after tomorrow, 24 February, Monday

    Time Temperature Precipitation Wind Pressure Humidity
    00:00 +6°C° 0 mm 2 mps 616 mmHg 48%
    01:00 +5°C° 0 mm 2 mps 616 mmHg 45%
    02:00 +4°C° 0 mm 2 mps 616 mmHg 42%
    03:00 +3°C° 0 mm 2 mps 616 mmHg 39%
    04:00 +4°C° 0 mm 1 mps 616 mmHg 36%
    05:00 +3°C° 0 mm 1 mps 617 mmHg 36%
    06:00 +3°C° 0 mm 1 mps 617 mmHg 35%
    07:00 +3°C° 0 mm 1 mps 618 mmHg 34%
    08:00 +4°C° 0 mm 1 mps 618 mmHg 30%
    09:00 +6°C° 0 mm 1 mps 619 mmHg 26%
    10:00 +8°C° 0 mm 1 mps 620 mmHg 21%
    11:00 +9°C° 0 mm 1 mps 620 mmHg 20%
    12:00 +10°C° 0 mm 1 mps 619 mmHg 19%
    13:00 +11°C° 0 mm 1 mps 619 mmHg 18%
    14:00 +10°C° 0 mm 2 mps 619 mmHg 18%
    15:00 +10°C° 0 mm 2 mps 619 mmHg 17%
    16:00 +12°C° 0 mm 2 mps 619 mmHg 17%
    17:00 +10°C° 0 mm 2 mps 619 mmHg 19%
    18:00 +8°C° 0 mm 2 mps 619 mmHg 22%
    19:00 +7°C° 0 mm 2 mps 619 mmHg 25%
    20:00 +6°C° 0 mm 2 mps 619 mmHg 26%
    21:00 +7°C° 0 mm 1 mps 619 mmHg 28%
    22:00 +6°C° 0 mm 1 mps 619 mmHg 29%
    23:00 +5°C° 0 mm 1 mps 619 mmHg 30%

    25 February, Tuesday

    Time Temperature Precipitation Wind Pressure Humidity
    00:00 +5°C° 0 mm 1 mps 618 mmHg 31%
    01:00 +4°C° 0 mm 1 mps 618 mmHg 32%
    02:00 +3°C° 0 mm 0 mps 617 mmHg 33%
    03:00 +2°C° 0 mm 0 mps 617 mmHg 34%
    04:00 +2°C° 0 mm 0 mps 616 mmHg 35%
    05:00 +2°C° 0 mm 0 mps 616 mmHg 35%
    06:00 +1°C° 0 mm 0 mps 616 mmHg 36%
    07:00 +1°C° 0 mm 0 mps 616 mmHg 37%
    08:00 +3°C° 0 mm 0 mps 617 mmHg 32%
    09:00 +5°C° 0 mm 0 mps 618 mmHg 28%
    10:00 +7°C° 0 mm 0 mps 618 mmHg 24%
    11:00 +9°C° 0 mm 1 mps 618 mmHg 24%
    12:00 +10°C° 0 mm 1 mps 618 mmHg 23%
    13:00 +11°C° 0 mm 1 mps 617 mmHg 22%
    14:00 +10°C° 0 mm 2 mps 617 mmHg 22%
    15:00 +11°C° 0 mm 3 mps 617 mmHg 22%
    16:00 +11°C° 0 mm 3 mps 618 mmHg 22%
    17:00 +10°C° 0 mm 3 mps 618 mmHg 25%
    18:00 +7°C° 0 mm 4 mps 618 mmHg 28%
    19:00 +6°C° 0 mm 4 mps 618 mmHg 31%
    20:00 +5°C° 0 mm 3 mps 618 mmHg 33%
    21:00 +5°C° 0 mm 2 mps 618 mmHg 36%
    22:00 +6°C° 0 mm 1 mps 618 mmHg 39%
    23:00 +5°C° 0 mm 1 mps 618 mmHg 41%

    26 February, Wednesday

    Time Temperature Precipitation Wind Pressure Humidity
    00:00 +5°C° 0 mm 1 mps 618 mmHg 43%
    01:00 +3°C° 0 mm 0 mps 617 mmHg 45%
    02:00 +3°C° 0 mm 0 mps 617 mmHg 46%
    03:00 +3°C° 0 mm 0 mps 616 mmHg 47%
    04:00 +2°C° 0 mm 0 mps 616 mmHg 48%
    05:00 +2°C° 0 mm 0 mps 616 mmHg 49%
    06:00 +2°C° 0 mm 0 mps 616 mmHg 50%
    07:00 +2°C° 0 mm 0 mps 616 mmHg 51%
    08:00 +3°C° 0 mm 0 mps 616 mmHg 47%
    09:00 +5°C° 0 mm 0 mps 617 mmHg 43%
    10:00 +8°C° 0 mm 1 mps 617 mmHg 39%
    11:00 +9°C° 0 mm 1 mps 617 mmHg 39%
    12:00 +10°C° 0 mm 1 mps 616 mmHg 39%
    13:00 +11°C° 0 mm 1 mps 616 mmHg 38%
    14:00 +10°C° 0 mm 2 mps 616 mmHg 40%
    15:00 +11°C° 0 mm 3 mps 616 mmHg 41%
    16:00 +11°C° 0 mm 3 mps 616 mmHg 42%
    17:00 +10°C° 0 mm 4 mps 617 mmHg 42%
    18:00 +8°C° 0 mm 5 mps 617 mmHg 43%
    19:00 +7°C° 0 mm 5 mps 618 mmHg 43%
    20:00 +5°C° 0.5 mm 5 mps 618 mmHg 52%
    21:00 +4°C° 0.5 mm 4 mps 618 mmHg 61%
    22:00 +2°C° 0.5 mm 3 mps 618 mmHg 70%
    23:00 +2°C° 0.5 mm 3 mps 618 mmHg 74%

    27 February, Thursday

    Time Temperature Precipitation Wind Pressure Humidity
    00:00 +1°C° 0.5 mm 3 mps 618 mmHg 77%
    01:00 +2°C° 0.5 mm 2 mps 618 mmHg 80%
    02:00 +2°C° 0 mm 2 mps 619 mmHg 77%
    03:00 +3°C° 0 mm 1 mps 619 mmHg 75%
    04:00 +3°C° 0 mm 1 mps 619 mmHg 73%
    05:00 +3°C° 0 mm 1 mps 619 mmHg 73%
    06:00 +2°C° 0 mm 0 mps 619 mmHg 73%
    07:00 +2°C° 0 mm 0 mps 619 mmHg 74%
    08:00 +2°C° 0 mm 0 mps 619 mmHg 68%
    09:00 +3°C° 0 mm 0 mps 620 mmHg 63%
    10:00 +4°C° 0 mm 0 mps 620 mmHg 58%
    11:00 +6°C° 0 mm 1 mps 619 mmHg 53%
    12:00 +7°C° 0 mm 1 mps 619 mmHg 49%
    13:00 +8°C° 0 mm 1 mps 618 mmHg 44%
    14:00 +8°C° 0 mm 1 mps 618 mmHg 45%
    15:00 +8°C° 0 mm 1 mps 618 mmHg 46%
    16:00 +7°C° 0 mm 2 mps 618 mmHg 46%
    17:00 +6°C° 0 mm 2 mps 618 mmHg 47%
    18:00 +6°C° 0 mm 2 mps 619 mmHg 48%
    19:00 +6°C° 0 mm 2 mps 620 mmHg 49%
    20:00 +5°C° 0 mm 2 mps 620 mmHg 54%
    21:00 +5°C° 0 mm 1 mps 620 mmHg 58%
    22:00 +5°C° 0 mm 1 mps 620 mmHg 63%
    23:00 +4°C° 0 mm 1 mps 620 mmHg 65%
    Show more